FAUNA

Last updated on Fri Feb 15 2019 03:06:12 GMT+0000 (Coordinated Universal Time)

1 43052U 17071R 19044.96162063 .00003060 00000-0 83524-4 0 9996 2 43052 51.6396 301.5033 0003061 84.9925 275.1409 15.40689498 66822
UTC large
Height (km)
Speed (km/s)
/
Latitude / Longitude
Inclination (degrees)
Orbital Period (minutes)
Azimuth
Elevation
Range (km)
Doppler Factor

Next 0 passes for location: London (51.5072 / 0.1276)

Sorry there are no passes over London.